TimeAKST,TemperatureF,Dew PointF,Humidity,Sea Level PressureIn,VisibilityMPH,Wind Direction,Wind SpeedMPH,Gust SpeedMPH,PrecipitationIn,Events,Conditions,WindDirDegrees,DateUTC
12:06 AM,19.4,15.8,86,29.76,1.5,North,-9999.0,-,0.00,Snow,Light Snow,0,2012-11-10 09:06:00
12:53 AM,19.0,15.1,85,29.78,1.5,North,-9999.0,-,0.02,Snow,Light Snow,0,2012-11-10 09:53:00
1:33 AM,19.4,15.8,86,29.75,2.5,North,-9999.0,-,0.01,Snow,Light Snow,0,2012-11-10 10:33:00
1:40 AM,19.4,15.8,86,29.75,4.0,North,-9999.0,-,0.01,Snow,Light Snow,0,2012-11-10 10:40:00
1:53 AM,19.0,15.1,85,29.77,3.0,North,-9999.0,-,0.01,Snow,Light Snow,0,2012-11-10 10:53:00
2:14 AM,19.4,15.8,86,29.75,3.0,North,-9999.0,-,0.00,Snow,Light Snow,0,2012-11-10 11:14:00
3:53 AM,19.9,15.1,81,29.76,9.0,North,-9999.0,-,0.00,,Overcast,0,2012-11-10 12:53:00
4:48 AM,19.4,15.8,86,29.74,2.0,North,-9999.0,-,0.00,Snow,Light Snow,0,2012-11-10 13:48:00
4:53 AM,19.0,15.1,85,29.76,1.8,North,-9999.0,-,0.00,Snow,Light Snow,0,2012-11-10 13:53:00
5:00 AM,19.4,15.8,86,29.74,1.5,North,-9999.0,-,0.00,Snow,Light Snow,0,2012-11-10 14:00:00
5:19 AM,19.4,15.8,86,29.74,2.5,North,-9999.0,-,0.01,Snow,Light Snow,0,2012-11-10 14:19:00
5:53 AM,18.0,15.1,88,29.75,2.5,North,-9999.0,-,0.01,Snow,Light Snow,0,2012-11-10 14:53:00
6:07 AM,17.6,15.8,93,29.73,3.0,North,-9999.0,-,0.00,Snow,Light Snow,0,2012-11-10 15:07:00
6:20 AM,17.6,15.8,93,29.73,2.5,North,-9999.0,-,0.00,Snow,Light Snow,0,2012-11-10 15:20:00
6:53 AM,18.0,15.1,88,29.75,2.5,North,-9999.0,-,0.00,Snow,Light Snow,0,2012-11-10 15:53:00
7:36 AM,17.6,15.8,93,29.73,3.0,North,-9999.0,-,0.00,Snow,Light Snow,0,2012-11-10 16:36:00
7:53 AM,18.0,15.1,88,29.75,3.0,North,-9999.0,-,0.00,Snow,Light Snow,0,2012-11-10 16:53:00
8:05 AM,17.6,15.8,93,29.73,2.5,North,-9999.0,-,0.01,Snow,Light Snow,0,2012-11-10 17:05:00
8:14 AM,17.6,15.8,93,29.73,5.0,North,-9999.0,-,0.01,Snow,Light Snow,0,2012-11-10 17:14:00
8:53 AM,18.0,15.1,88,29.75,3.0,North,-9999.0,-,0.01,Snow,Light Snow,0,2012-11-10 17:53:00
9:06 AM,17.6,15.8,93,29.74,3.0,North,-9999.0,-,0.00,Snow,Light Snow,0,2012-11-10 18:06:00
9:27 AM,17.6,15.8,93,29.75,3.0,North,-9999.0,-,0.00,Snow,Light Snow,0,2012-11-10 18:27:00
9:53 AM,18.0,14.0,84,29.76,4.0,North,-9999.0,-,0.00,Snow,Light Snow,0,2012-11-10 18:53:00
10:53 AM,18.0,14.0,84,29.77,3.0,North,-9999.0,-,0.01,Snow,Light Snow,0,2012-11-10 19:53:00
11:02 AM,17.6,14.0,86,29.76,2.5,North,-9999.0,-,0.00,Snow,Light Snow,0,2012-11-10 20:02:00
11:25 AM,17.6,14.0,86,29.76,4.0,North,-9999.0,-,0.00,Snow,Light Snow,0,2012-11-10 20:25:00
11:53 AM,18.0,14.0,84,29.77,3.0,North,-9999.0,-,0.00,Snow,Light Snow,0,2012-11-10 20:53:00
12:17 PM,17.6,15.8,93,29.76,1.8,North,-9999.0,-,0.00,Snow,Light Snow,0,2012-11-10 21:17:00
12:39 PM,17.6,15.8,93,29.76,1.2,North,-9999.0,-,0.00,Snow,Light Snow,0,2012-11-10 21:39:00
12:53 PM,18.0,15.1,88,29.78,1.2,North,-9999.0,-,0.01,Snow,Light Snow,0,2012-11-10 21:53:00
1:53 PM,19.0,16.0,88,29.78,1.0,North,-9999.0,-,0.00,Snow,Light Snow,0,2012-11-10 22:53:00
2:15 PM,19.4,15.8,86,29.76,1.5,North,-9999.0,-,0.01,Snow,Light Snow,0,2012-11-10 23:15:00
2:25 PM,19.4,15.8,86,29.76,1.0,North,-9999.0,-,0.01,Snow,Light Snow,0,2012-11-10 23:25:00
2:53 PM,19.0,16.0,88,29.78,1.5,North,-9999.0,-,0.01,Snow,Light Snow,0,2012-11-10 23:53:00
3:05 PM,19.4,15.8,86,29.77,2.0,North,-9999.0,-,0.00,Snow,Light Snow,0,2012-11-11 00:05:00
3:30 PM,19.4,12.2,74,29.77,4.0,North,-9999.0,-,0.01,Snow,Light Snow,0,2012-11-11 00:30:00
3:53 PM,18.0,12.0,78,29.78,9.0,North,-9999.0,-,0.01,Snow,Light Snow,0,2012-11-11 00:53:00
4:53 PM,18.0,10.9,74,29.78,10.0,North,-9999.0,-,0.00,,Overcast,0,2012-11-11 01:53:00
5:53 PM,17.1,10.9,77,29.79,10.0,North,-9999.0,-,N/A,,Overcast,0,2012-11-11 02:53:00
6:32 PM,17.6,10.4,73,29.77,10.0,North,-9999.0,-,0.00,,Overcast,0,2012-11-11 03:32:00
6:53 PM,18.0,10.0,71,29.79,10.0,North,-9999.0,-,0.00,,Overcast,0,2012-11-11 03:53:00
7:53 PM,17.1,10.9,77,29.80,10.0,North,-9999.0,-,N/A,,Overcast,0,2012-11-11 04:53:00
8:42 PM,17.6,8.6,68,29.79,10.0,North,-9999.0,-,N/A,,Overcast,0,2012-11-11 05:42:00
8:53 PM,17.1,9.0,71,29.81,10.0,North,-9999.0,-,N/A,,Overcast,0,2012-11-11 05:53:00
9:25 PM,17.6,8.6,68,29.80,10.0,North,-9999.0,-,N/A,,Overcast,0,2012-11-11 06:25:00
9:53 PM,17.1,8.1,68,29.82,10.0,North,-9999.0,-,N/A,,Overcast,0,2012-11-11 06:53:00
10:53 PM,16.0,9.0,74,29.83,10.0,North,-9999.0,-,N/A,,Overcast,0,2012-11-11 07:53:00
11:53 PM,16.0,8.1,71,29.85,10.0,North,-9999.0,-,N/A,,Overcast,0,2012-11-11 08:53:00